Weather History for LESA - December, 2013

Change the Weather History Date:

Sunday, December 29, 2013

  Actual Average Record
Temperature  
Mean Temperature 36 °F -  
Max Temperature 45 °F - - ()
Min Temperature 27 °F - - ()
Degree Days  
Heating Degree Days 29    
Moisture  
Dew Point 30 °F    
Average Humidity 89    
Maximum Humidity 100    
Minimum Humidity 48    
Precipitation  
Precipitation 0.00 in 0.05 in - ()
Sea Level Pressure  
Sea Level Pressure 30.36 in    
Wind  
Wind Speed 3 mph ()    
Max Wind Speed 9 mph    
Max Gust Speed -    
Visibility 5.8 miles    
Events Fog    
T = Trace of Precipitation, MM = Missing Value Source: Averaged Metar Reports

Daily Weather History Graph

Daily Weather History Graph

Search for Another Location

Airport or City:

Trip Planner

Search our weather history database for the weather conditions in past years. The results will help you decide how hot, cold, wet, or windy it might be!

Date:

Astronomy

Dec. 29, 2013 Rise Set
Actual Time 8:46 AM CET 6:02 PM CET
Civil Twilight 8:15 AM CET 6:33 PM CET
Nautical Twilight 7:40 AM CET 7:07 PM CET
Astronomical Twilight 7:07 AM CET 7:41 PM CET
Moon 5:13 AM CET 3:29 PM CET
Length of Visible Light 10h 17m
Length of Day
9h 15m
Waning Crescent, 13% of the Moon is Illuminated
Dec 29
Waning Crescent
Jan 1
New
Jan 8
First Quarter
Jan 16
Full
Jan 24
Last Quarter

Hourly Weather History & Observations

Time (CET) Temp. Windchill Dew Point Humidity Pressure Visibility Wind Dir Wind Speed Gust Speed Precip Events Conditions
12:00 AM 31 °F - 30 °F 96%  in - West 5.8 mph - -  
12:00 AM 32.0 °F 27.5 °F 30.2 °F 93% 30.24 in 6.2 mi West 4.6 mph - N/A   Partly Cloudy
12:30 AM 30.2 °F 24.3 °F 28.4 °F 93% 30.27 in 6.2 mi WSW 5.8 mph - N/A   Partly Cloudy
1:00 AM 31 °F - 30 °F 93%  in 9 mi WSW 4.6 mph - -   Scattered Clouds
1:00 AM 32.0 °F 28.7 °F 30.2 °F 93% 30.27 in 6.2 mi WSW 3.5 mph - N/A   Partly Cloudy
1:30 AM 30.2 °F 26.7 °F 30.2 °F 100% 30.27 in 6.2 mi WSW 3.5 mph - N/A   Partly Cloudy
2:00 AM 31 °F - 30 °F 93%  in - West 6.9 mph - -  
2:00 AM 30.2 °F 24.3 °F 30.2 °F 100% 30.27 in 6.2 mi West 5.8 mph - N/A   Partly Cloudy
2:30 AM 30.2 °F 23.4 °F 28.4 °F 93% 30.27 in 6.2 mi WSW 6.9 mph - N/A   Scattered Clouds
3:00 AM 32 °F - 31 °F 92%  in - West 5.8 mph - -  
3:00 AM 32.0 °F 26.4 °F 30.2 °F 93% 30.27 in 6.2 mi West 5.8 mph - N/A   Scattered Clouds
3:30 AM 32.0 °F 26.4 °F 30.2 °F 93% 30.27 in 6.2 mi West 5.8 mph - N/A   Scattered Clouds
4:00 AM 29 °F - 28 °F 96%  in 9 mi WSW 3.5 mph - -   Scattered Clouds
4:00 AM 30.2 °F 26.7 °F 28.4 °F 93% 30.27 in - WSW 3.5 mph - N/A   Clear
4:30 AM 32.0 °F 28.7 °F 30.2 °F 93% 30.30 in - SW 3.5 mph - N/A   Clear
5:00 AM 30 °F - 30 °F 98%  in - Calm Calm - -  
5:00 AM 30.2 °F - 30.2 °F 100% 30.27 in - Calm Calm - N/A   Clear
5:30 AM 30.2 °F 23.4 °F 28.4 °F 93% 30.27 in - West 6.9 mph - N/A   Clear
6:00 AM 29 °F - 28 °F 96%  in - Calm Calm - -  
6:00 AM 30.2 °F - 28.4 °F 93% 30.27 in - Calm Calm - N/A   Clear
6:30 AM 28.4 °F - 28.4 °F 100% 30.30 in - Calm Calm - N/A   Clear
7:00 AM 28 °F - 27 °F 93%  in 9 mi Calm Calm - -   Scattered Clouds
7:00 AM 28.4 °F - 28.4 °F 100% 30.30 in - Calm Calm - N/A   Clear
7:30 AM 30.2 °F - 28.4 °F 93% 30.30 in 6.2 mi Calm Calm - N/A   Partly Cloudy
8:00 AM 30 °F - 30 °F 98%  in - West 4.6 mph - -  
8:00 AM 30.2 °F 26.7 °F 30.2 °F 100% 30.33 in 4.3 mi WNW 3.5 mph - N/A   Scattered Clouds
8:30 AM 30.2 °F - 30.2 °F 100% 30.36 in 0.2 mi Variable 2.3 mph - N/A Fog Light Freezing Fog
9:00 AM 30 °F - 30 °F 99%  in - West 3.5 mph - -  
9:00 AM 30.2 °F 26.7 °F 30.2 °F 100% 30.36 in 0.2 mi WNW 3.5 mph - N/A Fog Light Freezing Fog
9:30 AM 30.2 °F 26.7 °F 30.2 °F 100% 30.39 in 0.1 mi West 3.5 mph - N/A Fog Light Freezing Fog
10:00 AM 30 °F - 30 °F 100%  in 0 mi WSW 8.1 mph - - Fog Partial Fog
10:00 AM 30.2 °F 23.4 °F 30.2 °F 100% 30.39 in 0.4 mi WSW 6.9 mph - N/A Fog Light Freezing Fog
10:30 AM 30.2 °F 25.4 °F 30.2 °F 100% 30.39 in 0.9 mi SW 4.6 mph - N/A Fog Fog
11:00 AM 32 °F - 32 °F 98%  in - WSW 4.6 mph - -  
11:00 AM 32.0 °F 28.7 °F 32.0 °F 100% 30.42 in 2.5 mi WSW 3.5 mph - N/A   Overcast
11:17 AM 32.0 °F 27.5 °F 32.0 °F 100% 30.42 in 4.3 mi WSW 4.6 mph - N/A   Overcast
11:30 AM 32.0 °F 26.4 °F 32.0 °F 100% 30.42 in 5.6 mi WSW 5.8 mph - N/A   Mostly Cloudy
12:00 PM 35 °F - 33 °F 92%  in - WSW 2.3 mph - -  
12:00 PM 33.8 °F - 33.8 °F 100% 30.42 in 6.2 mi Variable 2.3 mph - N/A   Mostly Cloudy
12:30 PM 35.6 °F 32.8 °F 33.8 °F 93% 30.42 in 6.2 mi West 3.5 mph - N/A   Mostly Cloudy
1:00 PM 38 °F - 33 °F 77%  in 12 mi WSW 3.5 mph - -   Partly Cloudy
1:00 PM 37.4 °F 33.8 °F 33.8 °F 87% 30.42 in 6.2 mi WSW 4.6 mph - N/A   Mostly Cloudy
1:30 PM 41.0 °F - 33.8 °F 76% 30.39 in 6.2 mi Variable 1.2 mph - N/A   Scattered Clouds
2:00 PM 42 °F - 33 °F 60%  in - SW 2.3 mph - -  
2:00 PM 41.0 °F - 33.8 °F 76% 30.39 in 6.2 mi Variable 2.3 mph - N/A   Scattered Clouds
2:30 PM 42.8 °F 39.3 °F 33.8 °F 70% 30.39 in 6.2 mi WSW 5.8 mph - N/A   Scattered Clouds
3:00 PM 44 °F - 31 °F 48%  in - West 5.8 mph - -  
3:00 PM 42.8 °F 40.1 °F 32.0 °F 66% 30.39 in 6.2 mi West 4.6 mph - N/A   Scattered Clouds
3:30 PM 42.8 °F 40.1 °F 33.8 °F 70% 30.39 in 6.2 mi West 4.6 mph - N/A   Scattered Clouds
4:00 PM 43 °F - 31 °F 52%  in 12 mi West 9.2 mph - -   Partly Cloudy
4:00 PM 44.6 °F 40.2 °F 33.8 °F 66% 30.39 in 6.2 mi WNW 8.1 mph - N/A   Scattered Clouds
4:30 PM 42.8 °F 38.6 °F 33.8 °F 70% 30.39 in 6.2 mi WNW 6.9 mph - N/A   Scattered Clouds
5:00 PM 42 °F - 31 °F 55%  in - West 2.3 mph - -  
5:00 PM 42.8 °F - 32.0 °F 66% 30.39 in 6.2 mi Variable 1.2 mph - N/A   Scattered Clouds
5:30 PM 41.0 °F 39.0 °F 32.0 °F 70% 30.39 in 6.2 mi West 3.5 mph - N/A   Partly Cloudy
6:00 PM 39 °F - 31 °F 65%  in - West 3.5 mph - -  
6:00 PM 39.2 °F 37.0 °F 32.0 °F 75% 30.39 in 6.2 mi West 3.5 mph - N/A   Partly Cloudy
6:30 PM 35.6 °F - 32.0 °F 87% 30.42 in 6.2 mi Calm Calm - N/A   Partly Cloudy
7:00 PM 35 °F - 31 °F 78%  in 11 mi Calm Calm - -   Scattered Clouds
7:00 PM 33.8 °F - 32.0 °F 93% 30.42 in - Calm Calm - N/A   Clear
7:30 PM 32.0 °F - 30.2 °F 93% 30.42 in - Calm Calm - N/A   Clear
8:00 PM 31 °F - 28 °F 85%  in - Calm Calm - -  
8:00 PM 32.0 °F - 30.2 °F 93% 30.42 in - Calm Calm - N/A   Clear
8:30 PM 30.2 °F - 30.2 °F 100% 30.42 in - Calm Calm - N/A   Clear
9:00 PM 29 °F - 27 °F 89%  in - Calm Calm - -  
9:00 PM 30.2 °F - 28.4 °F 93% 30.42 in - Calm Calm - N/A   Clear
9:30 PM 28.4 °F - 28.4 °F 100% 30.42 in - Calm Calm - N/A   Clear
10:00 PM 28 °F - 26 °F 91%  in 7 mi ESE 2.3 mph - -   Clear
10:00 PM 28.4 °F - 26.6 °F 93% 30.42 in - Calm Calm - N/A   Clear
10:30 PM 28.4 °F - 26.6 °F 93% 30.42 in - Variable 1.2 mph - N/A   Clear
11:00 PM 27 °F - 26 °F 96%  in - Calm Calm - -  
11:00 PM 28.4 °F - 26.6 °F 93% 30.42 in - Calm Calm - N/A   Clear
11:30 PM 28.4 °F - 26.6 °F 93% 30.42 in - Calm Calm - N/A   Clear